Tracking 34138 objects as of 15-May-2026
HD Live streaming from Space Station
objects crossing your sky now

STARLINK-37151

Track STARLINK-37151 now!
10-day predictions
STARLINK-37151 is classified as:


NORAD ID: 68290
Int'l Code: 2026-055AE
Perigee: 445.8 km
Apogee: 447.9 km
Inclination: 53.2 °
Period: 93.4 minutes
Semi major axis: 6817 km
RCS: Unknown
Launch date: March 19, 2026
Source: United States (US)
Launch site: AIR FORCE EASTERN TEST RANGE (AFETR)
Your satellite tracking list
Your tracking list is empty




NASA's NSSDC Master Catalog

Two Line Element Set (TLE):
1 68290U 26055AE  26134.65566150  .00020440  00000-0  47762-3 0  9992
2 68290  53.1607  12.6538 0001559  78.8109 281.3072 15.42177798 10035
Source of the keplerian elements: AFSPC